Regional Weather Roundup
Issued by NWS Wakefield, VA

Home | Current Version | Previous Version | Text Only | Print | Product List | Glossary On
Versions: 1 2 3 4 5 6 7 8 9 10 11 12 13 14 15 16 17 18 19 20 21 22 23 24 25 26 27 28 29 30 31 32 33 34 35 36 37 38 39 40 41 42 43 44 45 46 47 48 49 50
000
ASUS41 KAKQ 030815
RWRAKQ

REGIONAL WEATHER ROUNDUP
NATIONAL WEATHER SERVICE WAKEFIELD VA
400 AM EDT THU SEP 03 2015

Note: "fair" indicates few or no clouds below 12,000 feet with no
significant weather and/or obstructions to visibility. * = Denotes
station may not report precipitation (e.g., rain,snow,etc.),
thunder or fog.

VAZ042-051-052>054-056-030900-
NORTHERN VIRGINIA

CITY           SKY/WX    TMP DP  RH WIND       PRES   REMARKS
WASH NATIONAL  CLEAR     76  67  73 CALM      29.91S
DULLES         CLEAR     67  66  97 CALM      29.92F
FORT BELVOIR   CLEAR     66  66 100 CALM      29.91S FOG
QUANTICO       CLEAR     71  66  84 CALM      29.92S
FREDERICKSBRG* CLEAR     69  69  99 CALM      29.91S
STAFFORD*      CLEAR     65  64  94 CALM      29.96S
WARRENTON      CLEAR     65  65  99 CALM      29.92S FOG
CULPEPER*      CLEAR     63  63  99 CALM      29.93S FOG
MANASSAS*      CLEAR     66  66 100 CALM      29.92S
LEESBURG*      CLEAR     72  70  94 NW8       29.93S
WINCHESTER     CLEAR     68  64  88 CALM      29.95S
FRONT ROYAL*   FAIR      64  64 100 S6        29.95S
LURAY*         FAIR      63  63 100 CALM      29.98S FOG
$$

VAZ048-049-060>072-079>083-030900-
CENTRAL AND SOUTH CENTRAL VIRGINIA

CITY           SKY/WX    TMP DP  RH WIND       PRES   REMARKS
RICHMOND       CLEAR     68  65  90 S8        29.93S
CHESTERFIELD*  FAIR      66  55  68 S3        29.95S
PETERSBURG*    CLEAR     66  66 100 CALM      29.94F FOG
HANOVER        CLEAR     68  66  93 CALM      29.94F
TAPPAHANNOCK*  CLEAR     69  65  88 W3        29.92F
QUINTON*       FAIR      67  67 100 CALM      29.92F FOG
CHARLOTTSVILLE CLEAR     66  64  93 S3        29.94F
GORDONSVILLE*  FAIR      64  63  97 CALM      29.93S
ORANGE*        CLEAR     66  64  94 S3        29.94F
LOUISA*        CLEAR     66  64  94 CALM      29.92F FOG
BUMPASS*       FAIR      65  65  99 CALM      29.92F
FARMVILLE*     CLEAR     65  65 100 CALM      29.93F FOG
CREWE*         FAIR     N/A N/A N/A CALM      29.94F
FORT PICKETT*  FAIR      64  64  97 CALM      29.95S
CHASE CITY*    FAIR      67  67 100 CALM      29.95F
CLARKSVILLE*   CLOUDY    66  66 100 CALM      29.95S VSB 1/2
SOUTH HILL*    CLEAR     66  66 100 CALM      30.00F
LAWRENCEVILLE* CLOUDY    66  66 100 CALM      29.94F VSB 1/4
EMPORIA*       FOG       68  68 100 CALM      29.95F VSB 3/4
$$

VAZ088>098-030900-
SOUTHEAST VIRGINIA

CITY           SKY/WX    TMP DP  RH WIND       PRES   REMARKS
NORFOLK        MOCLDY    73  69  87 W3        29.92F
VIRGINIA BEACH MOCLDY    75  68  78 W6        29.91F
NORFOLK NAVAL  MOCLDY    74  70  87 W6        29.93F
WEST POINT*    CLEAR     72  69  89 SW5       29.93S
SALUDA*        FAIR      70  68  95 CALM      29.91S
NEWPORT NEWS   PTCLDY    72  71  97 W5        29.92F FOG
LANGLEY AFB    MOCLDY    71  70  95 W2        29.91F
FORT EUSTIS    MOCLDY    72 N/A N/A W3        29.90F
WILLIAMSBURG*  CLEAR     73  72  94 CALM      29.93F
HR EXEC AP*      N/A     70  66  88 W3        29.95S
FRANKLIN*      CLOUDY    69  69  99 CALM      29.95R FOG
WAKEFIELD      CLEAR     70  67  90 CALM      29.93F FOG
$$

VAZ020-022-025-037-045-030900-
WEST CENTRAL AND SOUTHWEST VIRGINIA

CITY           SKY/WX    TMP DP  RH WIND       PRES   REMARKS
STAUNTON*      CLEAR     64  62  94 CALM      30.02S FOG
WAYNESBORO*    FAIR      63  62  95 CALM      30.01R
HOT SPRINGS VA CLEAR     65  60  83 NW9       30.12S
LYNCHBURG      CLEAR     63  61  93 CALM      29.98F
DANVILLE       CLEAR     65  62  90 CALM      29.97F FOG
SOUTH BOSTON*  CLOUDY    64  62  95 CALM      29.96S VSB 1/4
MARTINSVILLE   CLEAR     64  64 100 CALM      30.01S FOG
ROANOKE        CLEAR     67  64  90 N3        30.02S
BLACKSBURG     CLEAR     64  64 100 CALM      30.09S
DUBLIN*        CLOUDY    65  64  96 CALM      30.07S
MARION*        PTCLDY    62  60  94 CALM      30.13R
HILLSVILLE*    CLEAR     64  62  92 SW5       30.08F
RICHLANDS*     FAIR      67  33  27 CALM      30.11S
WISE*          PTCLDY    66  63  88 CALM      30.12S
ABINGDON*      MOCLDY    65  62  88 CALM      30.08R
$$

MDZ021>025-VAZ099-100-030900-
SOUTHERN MARYLAND AND THE DELMARVA PENINSULA

CITY           SKY/WX    TMP DP  RH WIND       PRES   REMARKS
PATUXENT RIVER CLEAR     71  67  87 W7        29.90S
BAY BRIDGE APT   N/A     75  68  78 NW3       29.89S
LEONARDTOWN    NOT AVBL
DOVER          CLEAR     73  73 100 W3        29.86S
GEORGETOWN     CLEAR     73  71  93 W3        29.89S FOG
EASTON         NOT AVBL
CAMBRIDGE      CLEAR     72  68  88 S3        29.89R
SALISBURY      CLEAR     71  70  96 SW5       29.89S FOG
OCEAN CITY     PTCLDY    74  71  91 W7        29.88S
WALLOPS ISLAND CLEAR     75  73  93 W8        29.90S
ACCOMACK*      CLEAR    N/A N/A N/A W5        29.90F
$$

NCZ012>017-030>032-030900-
NORTH CENTRAL AND EASTERN NORTH CAROLINA

CITY           SKY/WX    TMP DP  RH WIND       PRES   REMARKS
ROANOKE RAPIDS FOG       68  68 100 CALM      29.94F VSB 1/2
RALEIGH        FOG       70  69  97 CALM      29.96S VSB 1/2
ELIZABETH CITY LGT RAIN  71  69  93 W8        29.93S
AHOSKIE*       FOG       67  66  97 CALM      29.95S VSB 1/2
EDENTON*       MOCLDY    69  68  95 CALM      29.93S FOG
CURRITUCK*     MOCLDY    71  68  90 W5        29.93S
KILL DEVIL HLS MOCLDY    75  70  83 W5        29.91S
MANTEO         MOCLDY    73  69  87 CALM      29.93R
CAPE HATTERAS  LGT RAIN  76  73  91 NW6       29.92F
TARBORO*       FOG       69  68  96 CALM      29.95F VSB 1/2
GOLDSBORO      MOCLDY    70  69  98 S3        29.91F
WASHINGTON     PTCLDY    69  68  96 SW3       29.94F
GREENVILLE     MOCLDY    70  70 100 CALM      29.96F FOG
NEW BERN       TSTM      71  69  93 S7        29.94F FOG
WILMINGTON     PTCLDY    75  73  93 N6        29.95R
$$

VAZ048-030900-
ELSEWHERE

CITY           SKY/WX    TMP DP  RH WIND       PRES   REMARKS
HARRISBURG PA  PTCLDY    73  66  78 NW6       29.90S
BALTIMORE      CLEAR     69  67  93 W3        29.89S
ANNAPOLIS      CLEAR     74  69  85 W3        29.88F
ANDREWS AFB    CLEAR     73  67  80 W5        29.90S
PHILADELPHIA   CLEAR     77  64  64 N5        29.88S
HENDERSON NC   FOG       66  64  93 CALM      29.96S VSB 1/4
GREENSBORO     CLEAR     73  66  78 CALM      29.97F
ROCKY MOUNT    FOG       69  68  96 CALM      29.94F VSB 1/4
$$

VAZ100-030900-
MARINE

STATION/POSITION TIME  TEMP    WIND        PRES    WAVE   SWELL
                       AIR SEA DIR/SP/G            HT/PER HT/PER
                 (UTC) (F)     (DEG/KT/KT) (MB)    (FT/S) (FT/S)
BRANDYWINE LGT   0700   76 76  320/  6/  8 1011.8F
CAPE MAY NJ      0700   75 79   CALM  /  1 1011.3F
LEWES DE         0700   74 76  250/  5/  7 1011.7F
15NM E FENWICK I 0750   78 79  260/ 10/ 12 1011.7S   1/14   2/14
OCEAN-CITY-INLET 0700   75 78  290/  8/ 11 1011.0F
GOOSES REEF MD   0800   77 80  310/ 12/ 14 1013.1F
COVE POINT MD    0700   74     280/  7/ 11 1012.8F
SOLOMONS ISLAND  0700      81                N/A
BISHOPS HEAD MD  0700   78 80  290/ 12/ 14 1011.4F
PINEY POINT MD   0705          270/  7/  8   N/A
POTOMAC MD       0800   75 80  280/ 10/ 12 1011.4F   1/ 2
CAMBRIDGE MD     0700   76 81  250/  6/  7 1011.2F
LEWISETTA VA     0700   73 81  280/  7/  8 1012.4F
RAPPAHANNOCK LGT 0700          260/ 10/ 12 1013.4F
STINGRAY PT      0800   74 80  260/ 10/ 12 1013.1F   0
YORK RVR RNG VA  0700   76     270/  8/  9 1012.6F
JAMESTOWN VA     0800   72 82  260/  6/  6   N/A
DOMINION TERM VA 0700   75     290/ 10/ 11 1013.2F
KIPTOPEKE VA     0700      80  290/  9/ 10   N/A
CHES BAY BRIDGE  0700   76 79  250/ 11/ 12 1012.8F
CAPE HENRY VA    0700   74     260/  7/  8   N/A
CHESAPEAKE LGHT  0700   76     290/ 10/ 11 1013.9F
WILLOUBY STN VA  0700   75     300/  7/  8 1014.1F
CAPE HENRY BUOY  0728      80                N/A     2/13
1ST LANDING BUOY 0800      79              1012.8F   1/ 2
CAPE CHARLES BUO 0726      78                N/A     2/10   2/10
OFFSHORE WE BUOY 0711      79                N/A     2/ 3   2/10
64NM E OF VA BCH 0750   78 79  280/ 10/ 12 1012.5F   2/14   2/14
DUCK PIER NC     0700   76 80  290/ 11/ 13 1012.3F
44100 DUCK FRF   0724      80                N/A     2/13
44056 DUCK FRF   0711      81                N/A     1/13
OREGON INLET NC  0700   75 84  240/  4/  7 1012.8F
HATTERAS NC      0700   78 83  300/  9/ 13 1013.5F
DIAMOND SHLS NC  0750   80 85  310/ 12/ 16 1013.3F   2/13   2/13
CAPE LOOKOUT NC  0800   74     360/  4/  5 1013.2F
$$


USA.gov is the U.S. government's official web portal to all federal, state and local government web resources and services.